Weather History for Spartanburg, SC

Change the Weather History Date:

Saturday, February 1, 2014

  Actual Average (KGSP) Record (KGSP)
Temperature  
Mean Temperature 44 °F 43 °F  
Max Temperature 59 °F 54 °F 73 °F (1957)
Min Temperature 30 °F 33 °F 9 °F (1936)
Degree Days  
Heating Degree Days 20 22  
Month to date heating degree days 22  
Since 1 July heating degree days 1932  
Cooling Degree Days 0 0  
Month to date cooling degree days 0  
Year to date cooling degree days 0  
Moisture  
Dew Point 26 °F    
Average Humidity 51    
Maximum Humidity 75    
Minimum Humidity 23    
Precipitation  
Precipitation 0.00 in 0.13 in 1.95 in (1902)
Month to date precipitation 0.13  
Year to date precipitation 3.95  
Snow  
Snow 0.00 in 0.00 in 1.50 in (2007)
Month to date snowfall 0.0  
Since 1 July snowfall 2.8  
Snow Depth -    
Sea Level Pressure  
Sea Level Pressure 30.15 in    
Wind  
Wind Speed 1 mph (ENE)    
Max Wind Speed 7 mph    
Max Gust Speed -    
Visibility 10 miles    
Events      
T = Trace of Precipitation, MM = Missing Value Source: NWS Daily Summary

Daily Weather History Graph

Daily Weather History Graph

Search for Another Location

Airport:

Trip Planner

Search our weather history database for the weather conditions in past years. The results will help you decide how hot, cold, wet, or windy it might be!

Date:

Astronomy

Feb. 01, 2014 Rise Set
Actual Time 7:26 AM EST 5:56 PM EST
Civil Twilight 6:59 AM EST 6:23 PM EST
Nautical Twilight 6:29 AM EST 6:53 PM EST
Astronomical Twilight 5:59 AM EST 7:23 PM EST
Moon 8:21 AM EST (2/1) 8:22 PM EST (2/1)
Length of Visible Light 11h 23m
Length of Day
10h 30m
Waxing Crescent, 5% of the Moon is Illuminated
Feb 1
Waxing Crescent
Feb 6
First Quarter
Feb 14
Full
Feb 22
Last Quarter
Mar 1
New

Hourly Weather History & Observations

Time (EST) Temp. Windchill Dew Point Humidity Pressure Visibility Wind Dir Wind Speed Gust Speed Precip Events Conditions
12:15 AM 32.0 °F - 23.0 °F 69% 30.16 in 10.0 mi Calm Calm - N/A   Clear
12:35 AM 32.0 °F - 19.4 °F 60% 30.17 in 10.0 mi Calm Calm - N/A   Clear
12:55 AM 33.8 °F - 19.4 °F 56% 30.16 in 10.0 mi Calm Calm - N/A   Clear
1:15 AM 32.0 °F - 21.2 °F 64% 30.16 in 10.0 mi Calm Calm - N/A   Clear
1:35 AM 32.0 °F - 21.2 °F 64% 30.17 in 10.0 mi Calm Calm - N/A   Clear
1:55 AM 32.0 °F - 21.2 °F 64% 30.16 in 10.0 mi Calm Calm - N/A   Clear
2:15 AM 30.2 °F - 21.2 °F 69% 30.16 in 10.0 mi Calm Calm - N/A   Clear
2:35 AM 32.0 °F - 21.2 °F 64% 30.17 in 10.0 mi Calm Calm - N/A   Clear
2:55 AM 32.0 °F - 19.4 °F 60% 30.17 in 10.0 mi Calm Calm - N/A   Clear
3:15 AM 32.0 °F - 19.4 °F 60% 30.17 in 10.0 mi Calm Calm - N/A   Clear
3:35 AM 32.0 °F - 21.2 °F 64% 30.17 in 10.0 mi Calm Calm - N/A   Clear
3:55 AM 32.0 °F - 21.2 °F 64% 30.16 in 10.0 mi Calm Calm - N/A   Clear
4:15 AM 32.0 °F - 21.2 °F 64% 30.16 in 10.0 mi Calm Calm - N/A   Clear
4:35 AM 32.0 °F - 21.2 °F 64% 30.16 in 10.0 mi Calm Calm - N/A   Clear
4:55 AM 30.2 °F - 21.2 °F 69% 30.16 in 10.0 mi Calm Calm - N/A   Clear
5:15 AM 32.0 °F - 21.2 °F 64% 30.16 in 10.0 mi Calm Calm - N/A   Clear
5:35 AM 32.0 °F - 21.2 °F 64% 30.17 in 10.0 mi Calm Calm - N/A   Clear
5:55 AM 32.0 °F 27.5 °F 21.2 °F 64% 30.17 in 10.0 mi NNE 4.6 mph - N/A   Clear
6:15 AM 32.0 °F 25.6 °F 21.2 °F 64% 30.18 in 10.0 mi North 6.9 mph - N/A   Clear
6:35 AM 32.0 °F 28.7 °F 23.0 °F 69% 30.19 in 10.0 mi NE 3.5 mph - N/A   Clear
6:55 AM 32.0 °F 28.7 °F 21.2 °F 64% 30.19 in 10.0 mi NNE 3.5 mph - N/A   Clear
7:15 AM 32.0 °F 27.5 °F 21.2 °F 64% 30.20 in 10.0 mi NE 4.6 mph - N/A   Clear
7:35 AM 32.0 °F 27.5 °F 21.2 °F 64% 30.20 in 10.0 mi North 4.6 mph - N/A   Clear
7:55 AM 32.0 °F 27.5 °F 24.8 °F 75% 30.20 in 10.0 mi NNE 4.6 mph - N/A   Clear
8:15 AM 35.6 °F - 26.6 °F 70% 30.21 in 10.0 mi Calm Calm - N/A   Scattered Clouds
8:35 AM 37.4 °F 34.9 °F 26.6 °F 65% 30.20 in 10.0 mi NE 3.5 mph - N/A   Mostly Cloudy
8:55 AM 37.4 °F 34.9 °F 24.8 °F 60% 30.20 in 10.0 mi East 3.5 mph - N/A   Overcast
9:15 AM 37.4 °F 33.8 °F 23.0 °F 56% 30.21 in 10.0 mi NNE 4.6 mph - N/A   Mostly Cloudy
9:35 AM 41.0 °F 39.0 °F 23.0 °F 49% 30.20 in 10.0 mi NNE 3.5 mph - N/A   Mostly Cloudy
9:55 AM 42.8 °F 40.1 °F 23.0 °F 46% 30.21 in 10.0 mi NNE 4.6 mph - N/A   Mostly Cloudy
10:15 AM 44.6 °F 41.4 °F 23.0 °F 43% 30.21 in 10.0 mi NNE 5.8 mph - N/A   Overcast
10:35 AM 44.6 °F 43.1 °F 23.0 °F 43% 30.22 in 10.0 mi NNE 3.5 mph - N/A   Overcast
10:55 AM 46.4 °F 45.2 °F 23.0 °F 40% 30.22 in 10.0 mi North 3.5 mph - N/A   Overcast
11:15 AM 48.2 °F - 23.0 °F 37% 30.21 in 10.0 mi NE 3.5 mph - N/A   Overcast
11:35 AM 50.0 °F - 23.0 °F 35% 30.21 in 10.0 mi Calm Calm - N/A   Overcast
11:55 AM 50.0 °F - 23.0 °F 35% 30.19 in 10.0 mi Calm Calm - N/A   Overcast
12:15 PM 51.8 °F - 23.0 °F 33% 30.19 in 10.0 mi NE 3.5 mph - N/A   Overcast
12:35 PM 53.6 °F - 24.8 °F 33% 30.17 in 10.0 mi Calm Calm - N/A   Mostly Cloudy
12:55 PM 55.4 °F - 24.8 °F 31% 30.16 in 10.0 mi Calm Calm - N/A   Scattered Clouds
1:15 PM 55.4 °F - 23.0 °F 29% 30.15 in 10.0 mi Calm Calm - N/A   Overcast
1:35 PM 57.2 °F - 23.0 °F 27% 30.13 in 10.0 mi ESE 3.5 mph - N/A   Overcast
1:55 PM 57.2 °F - 23.0 °F 27% 30.12 in 10.0 mi SE 5.8 mph - N/A   Overcast
2:15 PM 57.2 °F - 23.0 °F 27% 30.12 in 10.0 mi ESE 5.8 mph - N/A   Overcast
2:35 PM 59.0 °F - 21.2 °F 23% 30.11 in 10.0 mi SE 4.6 mph - N/A   Overcast
2:55 PM 59.0 °F - 23.0 °F 25% 30.11 in 10.0 mi SSE 3.5 mph - N/A   Overcast
3:15 PM 59.0 °F - 21.2 °F 23% 30.11 in 10.0 mi Calm Calm - N/A   Overcast
3:35 PM 57.2 °F - 23.0 °F 27% 30.11 in 10.0 mi SE 3.5 mph - N/A   Overcast
3:55 PM 57.2 °F - 23.0 °F 27% 30.11 in 10.0 mi Calm Calm - N/A   Overcast
4:15 PM 57.2 °F - 23.0 °F 27% 30.11 in 10.0 mi SE 3.5 mph - N/A   Overcast
4:35 PM 57.2 °F - 23.0 °F 27% 30.12 in 10.0 mi Calm Calm - N/A   Overcast
4:55 PM 55.4 °F - 32.0 °F 41% 30.13 in 10.0 mi Calm Calm - N/A   Overcast
5:15 PM 55.4 °F - 32.0 °F 41% 30.13 in 10.0 mi Calm Calm - N/A   Overcast
5:35 PM 55.4 °F - 32.0 °F 41% 30.13 in 10.0 mi Calm Calm - N/A   Overcast
5:55 PM 55.4 °F - 32.0 °F 41% 30.12 in 10.0 mi Calm Calm - N/A   Overcast
6:15 PM 53.6 °F - 32.0 °F 44% 30.12 in 10.0 mi Calm Calm - N/A   Overcast
6:35 PM 53.6 °F - 32.0 °F 44% 30.12 in 10.0 mi Calm Calm - N/A   Overcast
6:55 PM 53.6 °F - 32.0 °F 44% 30.12 in 10.0 mi Calm Calm - N/A   Overcast
7:15 PM 53.6 °F - 33.8 °F 47% 30.13 in 10.0 mi Calm Calm - N/A   Overcast
7:35 PM 53.6 °F - 33.8 °F 47% 30.12 in 10.0 mi Calm Calm - N/A   Overcast
7:55 PM 53.6 °F - 35.6 °F 51% 30.12 in 10.0 mi SW 3.5 mph - N/A   Mostly Cloudy
8:15 PM 53.6 °F - 37.4 °F 54% 30.12 in 10.0 mi SW 4.6 mph - N/A   Mostly Cloudy
8:35 PM 53.6 °F - 37.4 °F 54% 30.12 in 10.0 mi SW 3.5 mph - N/A   Overcast
8:55 PM 53.6 °F - 39.2 °F 58% 30.13 in 10.0 mi Calm Calm - N/A   Overcast
9:15 PM 53.6 °F - 39.2 °F 58% 30.13 in 10.0 mi Calm Calm - N/A   Overcast
9:35 PM 51.8 °F - 35.6 °F 54% 30.12 in 10.0 mi SSW 3.5 mph - N/A   Overcast
9:55 PM 51.8 °F - 37.4 °F 58% 30.13 in 10.0 mi SSW 3.5 mph - N/A   Overcast
10:15 PM 51.8 °F - 37.4 °F 58% 30.13 in 10.0 mi SW 4.6 mph - N/A   Overcast
10:35 PM 50.0 °F - 37.4 °F 62% 30.13 in 10.0 mi Calm Calm - N/A   Mostly Cloudy
10:55 PM 50.0 °F - 39.2 °F 66% 30.12 in 10.0 mi South 3.5 mph - N/A   Mostly Cloudy
11:15 PM 50.0 °F - 39.2 °F 66% 30.12 in 10.0 mi Calm Calm - N/A   Overcast
11:35 PM 50.0 °F - 39.2 °F 66% 30.11 in 10.0 mi Calm Calm - N/A   Overcast
11:55 PM 50.0 °F - 39.2 °F 66% 30.11 in 10.0 mi SSW 3.5 mph - N/A   Mostly Cloudy